DECAYED

STARLINK-4752, 53821 (Decayed)

Orbit data source: Space-Track

STARLINK-4752, 53821 was a payload satellite owned by SpaceX/Seattle (US) in LEO that was launched on Mon, 19 Sep 2022 UTC via an FALCON 9 launch vehicle from the Air Force Eastern Test Range (AFETR). Payload-class satellites include a variety of spacecraft equipped with specific instruments for various scientific and technological missions. These include communications satellites like Starlink; space stations such as the ISS; scientific satellites like the Hubble; Earth observation satellites from companies like Planet Labs, Umbra, and HawkEye 360; GPS; miniature CubeSats for education and research; and military/defense satellites.

Not visible in the next 10 days
Identifier
53821, 2022-114D
Orbit
Decayed
Country
Flag of USUS
Related business
Manufacturer
SpaceX/Seattle
Mission
Decayed Commercial Communications
Bus & Motor
STARLINK, Unknown motor
Mass
305 kg wet, ~290 kg dry
Launch date (UTC)
2022-09-19 (4 years ago)
Launch vehicle
FALCON 9
Launch site
Air Force Eastern Test Range (AFETR)
Object type
Payload
Rocket body
Debris
Shape & HBR
Box + 1 Pan, 10.1 m
Radar Cross Section
13.562 m², Large (>1 m²)

Expand to show TLE details & history
Last TLE update: 10 months ago

TLE from 10 months ago
0 STARLINK-4752
1 53821U 22114D   25229.92053698  .13890729  12125-4  31360-2 0  9990
2 53821  53.2098  43.4145 0007031 306.4161 206.8922 16.29348636162861
Epoch: 2025-08-17T22:05Z
TLE epoch observation values (Epoch: 2025-08-17T22:05:34.395Z)
Latitude
21.16193°
Longitude
-91.24156°
Altitude
199.008 km
Speed
7.788 km/s
True Right ascension
13h 46m 44s
True Declination
21° 02' 12"
Sunlit
Object was in daylight at epoch
Visualization orbit readout
Latitude
Unknown
Longitude
Unknown
Altitude
Unknown
Speed
Unknown
Apparent Right ascension
Unknown
Apparent Declination
Unknown
Sunlit
N/A
Visualization observer readout
Local Sidereal Time
21:34:01
Azimuth
Unknown
Elevation
Unknown
Doppler factor
Unknown
Orbital elements
Apogee altitude
199.171 km
Perigee altitude
189.928 km
Semi-major axis
6,572.687 km
Eccentricity
0.0007
Inclination
53.2098°
RAAN
43.4145°
Arg. of periapsis
306.4161°
True anomaly
206.85579°
Mean anomaly
206.8922°
Eccentric anomaly
206.87399°
Mean motion
4.07313 °/min
Orbital period
88.38 mins
BSTAR
0.003136
Loading maneuver chart data...
Computing Atmospheric mass density...
Loading historical data...
Loading historical data...
Loading historical data...
Loading historical data...
Loading historical data...
Loading historical data...
Loading historical data...

Documentation

Showing up to 5 results
|